Probability
0 0 0 0 0 0 0 0 0 0 0 0 0 0 0 0 0 0 0 0 0 0 0 0 0 0 0 0 0 0 0 0 0 0 0 0 0 0 0 0 0 0 0 0
0 0 0 0 0 0 0 0 0 0 0 0 0 0 0 0 0 0 0 0 0 0 0 0 0 0 0 0 0 0 0 0 0 0 0 0 0 0 0 0 0 0 0 0
0 0 0 0 0 0 0 0 0 0 0 0 0 0 0 0 0 0 0 0 0 0 0 0 0 0 0 0 0 0 0 0 0 0 0 0 0 0 0 0 0 0 0 0
0 0 0 0 0 0 0 0 0 0 0 0 0 0 0 0 0 0 0 0 0 0 0 0 0 0 0 0 0 0 0 0 0 0 0 0 0 0 0 0 0 0 0 0
0 0 0 0 0 0 0 0 0 0 0 0 0 0 0 0 0 0 0 0 0 0 0 0 0 0 0 0 0 0 0 0 0 0 0 0 0 0 0 0 0 0 0 0
0 0 0 0 0 0 0 0 0 0 0 0 0 0 0 0 0 0 0 0 0 0 0 0 0 0 0 0 0 0 0 0 0 0 0 0 0 0 0 0 0 0 0 0
0 0 0 0 0 0 0 0 0 0 0 0 0 0 0 0 0 0 0 0 0 0 0 0 0 0 0 0 0 0 0 0 0 0 0 0 0 0 0 0 0 0 0 0
0 0 0 0 0 0 0 0 0 0 0 0 0 0 0 0 0 0 0 0 0 0 0 0 0 0 0 0 0 0 0 0 0 0 0 0 0 0 0 0 0 0 0 0
0 0 0 0 0 0 0 0 0 0 0 0 0 0 0 0 0 0 0 0 0 0 0 0 0 0 0 0 0 0 0 0 0 0 0 0 0 0 0 0 0 0 0 0
0 0 0 0 0 0 0 0 0 0 0 0 0 0 0 0 0 0 0 0 0 0 0 0 0 0 0 0 0 0 0 0 0 0 0 0 0 0 0 0 0 0 0 0
0 0 0 0 0 0 0 0 0 0 0 0 0 0 0 0 0 0 0 0 0 0 0 0 0 0 0 0 0 0 0 0 0 0 0 0 0 0 0 0 0 0 0 0
0 0 0 0 0 0 0 0 0 0 0 0 0 0 0 0 0 0 0 0 0 0 0 0 0 0 0 0 0 0 0 0 0 0 0 0 0 0 0 0 0 0 0 0
0 0 0 0 0 0 0 0 0 0 0 0 0 0 0 0 0 0 0 0 0 0 0 0 0 0 0 0 0 0 0 0 0 0 0 0 0 0 0 0 0 0 0 0
0 0 0 0 0 0 0 0 0 0 0 0 0 0 0 0 0 0 0 0 0 0 0 0 0 0 0 0 0 0 0 0 0 0 0 0 0 0 0 0 0 0 0 0
0 0 0 0 0 0 0 0 0 0 0 0 0 0 0 0 0 0 0 0 0 0 0 0 0 0 0 0 0 0 0 0 0 0 0 0 0 0 0 0 0 0 0 0
0 0 0 0 0 0 0 0 0 0 0 0 0 0 0 0 0 0 0 0 0 0 0 0 0 0 0 0 0 0 0 0 0 0 0 0 0 0 0 0 0 0 0 0
0 0 0 0 0 0 0 0 0 0 0 0 0 0 0 0 0 0 0 0 0 0 0 0 0 0 0 0 0 0 0 0 0 0 0 0 0 0 0 0 0 0 0 0
0 0 0 0 0 0 0 0 0 0 0 0 0 0 0 0 0 0 0 0 0 0 0 0 0 0 0 0 0 0 0 0 0 0 0 0 0 0 0 0 0 0 0 0
0 0 0 0 0 0 0 0 0 0 0 0 0 0 0 0 0 0 0 0 0 0 0 0 0 0 0 0 0 0 0 0 0 0 0 0 0 0 0 0 0 0 0 0
0 0 0 0 0 0 0 0 0 0 0 0 0 0 0 0 0 0 0 0 0 0 0 0 0 0 0 0 0 0 0 0 0 0 0 0 0 0 0 0 0 0 0 0
0 0 0 0 0 0 0 0 0 0 0 0 0 0 0 0 0 0 0 0 0 0 0 0 0 0 0 0 0 0 0 0 0 0 0 0 0 0 0 0 0 0 0 0
0 0 0 0 0 0 0 0 0 0 0 0 0 0 0 0 0 0 0 0 0 0 0 0 0 0 0 0 0 0 0 0 0 0 0 0 0 0 0 0 0 0 0 0
0 0 0 0 0 0 0 0 0 0 0 0 0 0 0 0 0 0 0 0 0 0 0 0 0 0 0 0 0 0 0 0 0 0 0 0 0 0 0 0 0 0 0 0
0 0 0 0 0 0 0 0 0 0 0 0 0 0 0 0 0 0 0 0 0 0 0 0 0 0 0 0 0 0 0 0 0 0 0 0 0 0 0 0 0 0 0 0
0 0 0 0 0 0 0 0 0 0 0 0 0 0 0 0 0 0 0 0 0 0 0 0 0 0 0 0 0 0 0 0 0 0 0 0 0 0 0 0 0 0 0 0
0 0 0 0 0 0 0 0 0 0 0 0 0 0 0 0 0 0 0 0 0 0 0 0 0 0 0 0 0 0 0 0 0 0 0 0 0 0 0 0 0 0 0 0
0 0 0 0 0 0 0 0 0 0 0 0 0 0 0 0 0 0 0 0 0 0 0 0 0 0 0 0 0 0 0 0 0 0 0 0 0 0 0 0 0 0 0 0
Height
5739 5740 5742 5743 5744 5744 5743 5743 5743 5743 5743 5744 5740 5737 5735 5734 5732 5731 5729 5727 5724 5722 5720 5717 5715 5712 5709 5706 5703 5699 5695 5691 5687 5682 5678 5673 5667 5662 5656 5650 5644 5637 5630 5623
5730 5731 5732 5733 5735 5736 5735 5735 5734 5733 5734 5734 5731 5728 5727 5725 5723 5722 5720 5717 5715 5712 5710 5707 5705 5702 5699 5695 5692 5688 5684 5680 5675 5671 5666 5660 5655 5649 5643 5637 5630 5623 5616 5608
5722 5722 5722 5725 5729 5727 5727 5727 5726 5724 5726 5724 5721 5719 5718 5716 5714 5712 5710 5708 5705 5703 5700 5697 5694 5691 5688 5684 5681 5677 5673 5668 5663 5659 5653 5648 5642 5636 5629 5623 5616 5608 5600 5592
5712 5714 5714 5721 5720 5719 5718 5718 5717 5716 5715 5713 5712 5710 5708 5706 5704 5702 5700 5697 5695 5692 5690 5687 5684 5680 5677 5673 5669 5665 5661 5656 5651 5646 5641 5635 5629 5622 5615 5608 5601 5593 5585 5576
5704 5704 5705 5710 5711 5710 5708 5709 5709 5706 5705 5704 5701 5700 5698 5696 5694 5692 5690 5687 5685 5682 5679 5676 5673 5670 5666 5662 5658 5654 5649 5644 5639 5633 5628 5621 5615 5608 5601 5593 5585 5577 5569 5560
5695 5695 5696 5702 5702 5700 5700 5700 5700 5697 5695 5694 5692 5690 5690 5687 5684 5682 5679 5677 5674 5672 5669 5666 5662 5659 5655 5651 5646 5642 5637 5632 5626 5620 5614 5607 5601 5593 5586 5578 5570 5561 5553 5543
5685 5685 5687 5692 5691 5690 5691 5691 5689 5687 5686 5684 5682 5681 5679 5676 5674 5672 5669 5667 5664 5661 5658 5655 5651 5647 5643 5639 5634 5629 5624 5619 5613 5606 5600 5593 5586 5578 5570 5562 5554 5545 5537 5527
5676 5677 5682 5682 5681 5681 5681 5680 5678 5677 5676 5674 5673 5671 5669 5666 5664 5661 5659 5656 5653 5650 5647 5643 5640 5636 5631 5627 5622 5617 5611 5605 5599 5592 5585 5578 5571 5563 5554 5545 5537 5528 5518 5509
5669 5672 5672 5672 5671 5670 5670 5670 5668 5667 5666 5664 5662 5660 5658 5656 5654 5651 5648 5646 5642 5639 5636 5632 5628 5624 5619 5614 5609 5604 5598 5591 5585 5578 5571 5563 5555 5547 5538 5528 5519 5510 5500 5491
5659 5661 5662 5661 5660 5660 5660 5659 5658 5656 5655 5654 5652 5650 5648 5646 5643 5641 5638 5635 5631 5628 5624 5620 5616 5611 5606 5601 5596 5590 5584 5578 5571 5563 5556 5548 5539 5530 5521 5511 5501 5491 5481 5471
5649 5651 5651 5651 5650 5650 5649 5648 5647 5646 5644 5643 5641 5639 5637 5635 5632 5629 5626 5623 5620 5616 5612 5608 5603 5598 5593 5588 5582 5577 5570 5563 5556 5548 5540 5532 5523 5514 5504 5494 5482 5471 5461 5450
5640 5641 5640 5641 5641 5640 5639 5638 5636 5635 5634 5632 5630 5628 5626 5623 5621 5618 5615 5611 5608 5604 5599 5595 5590 5585 5580 5575 5569 5562 5556 5548 5541 5533 5524 5516 5507 5498 5487 5476 5465 5453 5440 5429
5629 5629 5629 5630 5630 5629 5627 5627 5626 5624 5623 5621 5619 5617 5614 5612 5609 5606 5603 5599 5595 5591 5587 5582 5577 5572 5567 5561 5554 5548 5541 5533 5525 5516 5507 5498 5488 5478 5469 5460 5448 5435 5422 5410
5617 5618 5618 5619 5618 5617 5616 5616 5614 5613 5612 5610 5608 5605 5603 5600 5597 5594 5590 5587 5583 5579 5574 5569 5564 5558 5553 5547 5540 5533 5525 5517 5508 5499 5490 5480 5469 5458 5448 5438 5429 5418 5405 5392
5606 5606 5607 5607 5607 5606 5605 5604 5603 5602 5600 5598 5596 5593 5591 5588 5585 5582 5578 5574 5570 5566 5561 5556 5551 5545 5538 5532 5525 5517 5509 5500 5491 5482 5472 5461 5450 5439 5428 5417 5406 5396 5385 5374
5595 5595 5595 5595 5595 5595 5594 5593 5591 5590 5588 5586 5584 5582 5579 5576 5573 5569 5565 5562 5557 5553 5548 5543 5537 5531 5524 5517 5509 5502 5493 5484 5474 5464 5453 5442 5431 5419 5408 5397 5386 5375 5365 5355
5583 5583 5584 5584 5583 5583 5582 5581 5579 5578 5576 5574 5572 5569 5567 5564 5560 5557 5553 5549 5544 5539 5534 5528 5522 5516 5509 5501 5493 5485 5477 5467 5457 5446 5435 5423 5412 5401 5389 5378 5368 5358 5348 5338
5571 5571 5572 5572 5572 5571 5570 5569 5567 5565 5564 5562 5559 5557 5554 5551 5548 5544 5540 5536 5531 5526 5520 5514 5507 5501 5493 5485 5477 5468 5459 5450 5439 5428 5417 5406 5394 5383 5372 5362 5352 5342 5332 5323
5559 5559 5560 5560 5559 5559 5558 5556 5555 5553 5551 5549 5547 5544 5541 5538 5535 5531 5527 5522 5517 5512 5506 5499 5492 5485 5477 5469 5460 5451 5442 5432 5422 5411 5400 5389 5378 5367 5357 5347 5337 5327 5317 5309
5547 5548 5548 5547 5547 5546 5545 5544 5542 5541 5539 5537 5534 5532 5529 5525 5522 5518 5513 5508 5503 5497 5491 5484 5477 5469 5461 5452 5443 5434 5424 5414 5404 5393 5383 5372 5362 5352 5342 5332 5322 5313 5304 5296
5536 5536 5536 5536 5535 5534 5533 5532 5530 5529 5527 5524 5522 5519 5516 5512 5508 5504 5499 5494 5488 5482 5476 5468 5461 5453 5444 5436 5427 5417 5407 5397 5387 5377 5367 5357 5347 5338 5328 5318 5309 5300 5291 5283
5524 5524 5524 5524 5523 5522 5521 5520 5518 5516 5514 5512 5509 5506 5503 5499 5494 5490 5485 5479 5473 5467 5460 5452 5444 5436 5427 5418 5409 5400 5390 5380 5370 5360 5351 5342 5332 5323 5314 5305 5296 5287 5279 5271
5512 5512 5512 5512 5511 5510 5509 5507 5506 5504 5501 5498 5495 5492 5489 5485 5480 5475 5471 5464 5458 5451 5444 5436 5428 5419 5410 5401 5392 5383 5373 5363 5354 5345 5336 5327 5318 5309 5300 5291 5283 5275 5267 5259
5501 5501 5500 5500 5499 5498 5496 5495 5493 5490 5488 5485 5482 5478 5474 5470 5466 5460 5454 5448 5442 5435 5427 5419 5411 5402 5393 5384 5375 5366 5357 5347 5338 5329 5321 5312 5303 5294 5286 5278 5270 5263 5255 5248
5488 5488 5488 5487 5486 5484 5483 5481 5479 5477 5474 5471 5467 5464 5459 5455 5450 5445 5439 5432 5426 5418 5411 5403 5394 5385 5377 5368 5359 5350 5341 5332 5323 5314 5306 5298 5289 5281 5274 5266 5258 5251 5243 5237
5476 5475 5475 5474 5473 5471 5470 5468 5465 5463 5460 5457 5453 5449 5445 5440 5435 5429 5423 5416 5409 5402 5394 5386 5378 5369 5361 5352 5344 5335 5327 5318 5309 5301 5293 5285 5277 5270 5262 5255 5247 5240 5233 5227
5463 5462 5462 5461 5459 5458 5456 5454 5452 5449 5446 5443 5439 5435 5430 5425 5420 5413 5407 5400 5393 5385 5378 5370 5362 5354 5346 5338 5330 5321 5313 5304 5296 5288 5281 5274 5266 5259 5252 5245 5238 5231 5224 5218
Wind_Speed
34 35 35 35 34 34 35 36 38 37 36 33 34 35 35 35 35 34 34 34 35 35 35 36 36 37 38 39 40 41 42 43 44 45 46 47 49 50 52 54 55 57 59 61
35 35 36 36 35 34 35 36 38 38 36 34 36 36 35 35 35 35 35 36 36 36 37 37 37 38 39 40 41 42 43 44 44 46 47 49 51 52 54 56 58 60 61 63
36 36 37 37 33 34 35 36 37 38 36 36 36 36 36 36 36 36 36 36 36 36 37 37 38 39 40 40 41 42 43 44 46 47 49 51 52 54 56 58 60 62 63 65
38 37 39 34 33 33 35 34 35 37 37 37 37 37 37 37 37 36 36 36 36 36 37 38 38 39 40 40 42 43 44 45 47 49 50 52 54 56 58 60 62 63 65 66
37 38 37 35 33 33 35 34 34 36 36 37 37 37 36 36 36 36 36 36 37 37 37 38 39 40 40 41 42 44 45 47 48 50 52 54 56 58 60 62 63 64 65 66
38 39 39 35 34 34 36 35 33 35 35 36 36 36 35 36 36 37 37 37 37 38 39 39 40 41 42 43 44 45 47 48 50 52 54 56 58 60 61 63 64 65 66 67
38 39 38 35 35 34 36 35 34 35 34 35 35 35 35 35 36 36 36 37 37 38 39 40 41 42 43 44 45 47 48 49 51 53 55 57 59 61 63 64 65 66 67 69
38 39 36 34 35 35 36 36 36 35 35 35 35 34 34 35 35 36 37 37 38 39 40 41 42 43 44 45 46 48 49 51 53 55 57 58 60 62 63 65 66 68 70 71
38 37 35 35 36 37 37 37 37 37 36 36 35 35 35 35 36 37 37 38 39 40 41 42 43 44 45 46 48 49 51 53 54 56 57 59 61 63 65 67 68 70 72 73
37 35 36 37 38 38 38 38 38 38 37 37 36 36 36 37 37 38 39 39 41 42 43 44 44 45 47 48 49 51 52 54 55 57 59 61 63 64 66 69 71 73 74 75
37 36 37 38 38 38 39 39 38 38 37 37 37 37 38 39 39 40 40 41 42 43 44 45 46 47 48 49 51 52 54 56 57 59 61 63 65 67 69 71 73 75 76 77
38 37 38 37 38 39 39 38 39 39 38 38 39 39 40 41 41 41 42 43 44 45 45 46 47 48 50 51 53 54 56 57 59 61 63 65 67 69 70 73 74 76 78 79
38 38 39 39 39 39 39 39 40 40 39 40 40 41 41 42 42 43 43 44 45 45 46 47 49 50 52 53 54 56 58 60 62 64 66 68 70 72 73 74 75 77 78 79
38 38 39 39 40 39 39 39 40 40 40 41 41 42 42 43 43 44 45 45 46 46 47 49 50 52 53 55 57 58 60 62 64 67 69 71 73 74 76 77 77 77 77 76
39 39 39 39 39 39 40 40 41 41 41 41 42 42 43 43 44 45 46 46 47 48 49 50 52 53 55 57 58 60 62 65 67 69 71 73 75 76 77 77 77 76 74 72
39 39 39 39 39 40 41 41 41 41 41 42 42 43 43 44 45 45 46 46 47 49 50 52 53 55 57 59 61 63 64 67 69 71 73 74 75 76 76 75 74 73 70 68
39 39 39 40 40 41 41 42 42 42 42 43 43 43 44 45 45 46 46 47 49 50 52 53 55 56 59 61 63 64 66 68 70 72 74 75 75 75 73 72 70 69 67 64
39 40 40 40 40 40 40 41 42 42 43 43 43 44 44 45 46 46 47 49 50 51 53 55 56 59 61 63 64 66 68 69 71 73 74 74 73 71 69 68 67 66 63 59
39 40 40 40 40 40 41 41 42 42 42 42 43 44 45 45 46 47 49 50 51 53 54 56 59 60 62 64 66 68 69 71 73 73 73 71 68 66 66 66 64 61 58 56
38 39 39 40 40 41 41 41 41 41 42 43 43 44 45 46 47 48 49 51 53 54 56 58 60 62 64 66 68 69 71 72 73 71 69 67 66 65 64 63 60 58 56 53
37 38 38 39 39 40 40 40 41 41 42 43 44 44 46 47 48 49 51 52 54 56 58 60 62 64 66 67 69 70 71 71 70 68 66 64 63 62 61 60 57 55 53 51
37 37 37 38 39 39 40 40 41 42 43 44 45 46 47 48 49 51 53 54 56 58 60 62 64 66 67 69 69 69 69 69 67 65 63 62 61 61 59 57 55 52 51 49
36 37 37 38 38 39 40 41 42 43 44 45 46 47 48 49 51 52 54 56 58 60 61 63 65 67 67 68 68 68 67 65 63 62 61 61 60 59 56 54 52 50 48 47
37 37 38 39 39 40 41 41 43 44 45 46 47 48 49 50 52 54 56 57 59 61 63 64 65 66 67 67 66 65 63 62 62 61 60 59 57 55 53 51 49 47 46 45
38 38 39 40 40 41 42 43 44 45 45 46 47 49 50 52 53 55 57 59 61 62 64 64 65 65 65 64 62 61 61 61 61 59 57 56 53 51 49 48 47 45 44 42
40 40 41 41 41 42 43 43 44 45 45 47 48 49 51 53 55 57 59 60 61 63 63 63 63 63 61 60 60 60 60 59 57 55 53 51 48 47 46 45 43 42 40 39
41 41 42 42 42 43 43 44 44 45 47 48 49 51 53 55 57 58 60 60 61 62 61 61 60 59 58 58 58 58 57 55 53 50 48 46 44 44 43 41 40 39 38 37
Wind_Direction
251 254 257 258 260 262 265 269 273 277 279 282 282 282 282 284 285 285 285 285 285 286 285 286 286 286 287 288 289 291 292 293 293 294 295 296 297 297 299 300 301 301 302 302
251 254 257 259 261 263 266 270 274 277 280 282 281 282 282 283 284 284 285 285 285 285 285 286 287 287 288 289 290 291 292 293 294 295 296 296 297 298 299 300 301 302 303 303
252 254 258 260 263 265 267 271 274 277 280 281 281 282 282 283 284 285 285 285 286 287 287 287 288 289 289 290 291 292 293 294 295 295 296 297 298 299 300 301 302 303 303 304
255 257 260 264 263 265 268 271 274 277 279 281 282 282 282 283 284 285 285 286 286 287 287 288 288 289 290 291 292 293 294 295 295 296 297 298 299 300 301 302 303 304 304 304
256 260 263 264 266 269 271 273 276 279 280 281 282 282 282 283 283 284 285 285 286 287 288 288 289 291 292 292 293 294 295 296 297 297 298 299 300 301 302 303 304 304 304 305
258 261 265 266 267 271 274 275 277 279 280 281 282 282 283 283 284 284 285 286 287 287 288 289 291 291 292 293 294 295 296 297 298 299 299 300 301 302 303 303 304 304 305 306
260 262 265 269 271 273 275 279 279 280 282 282 282 283 284 284 284 284 285 286 287 288 289 291 292 293 293 295 296 297 297 298 299 300 301 301 302 303 303 304 305 305 306 306
259 262 268 271 272 273 275 277 280 282 284 285 284 284 284 284 285 285 286 287 288 289 291 292 293 294 295 296 297 298 299 299 300 301 301 302 303 304 305 305 305 306 306 307
259 264 269 270 272 273 275 277 279 281 283 285 285 285 285 285 286 286 288 289 291 292 293 294 295 296 297 298 299 299 300 301 301 302 303 303 304 305 305 306 306 307 307 308
260 263 268 270 272 273 275 278 279 281 283 284 285 285 285 286 287 288 290 291 293 294 295 296 296 297 298 299 300 301 301 302 302 303 304 305 305 306 306 307 307 308 308 309
262 265 266 268 270 273 275 277 278 280 282 283 284 284 286 287 288 289 291 293 294 295 296 296 297 298 299 300 301 302 303 303 304 304 305 306 306 307 307 307 308 309 309 309
262 263 265 267 270 273 274 276 277 279 281 282 284 285 286 287 288 290 291 293 294 295 296 297 298 299 300 301 302 303 304 304 305 305 306 306 307 307 308 308 309 309 309 309
261 262 265 268 271 273 274 275 277 279 281 282 283 285 287 288 289 290 291 293 294 295 296 297 298 299 300 302 303 304 305 305 306 306 307 307 308 308 308 308 309 309 309 309
262 264 265 267 270 272 274 275 277 278 280 281 283 285 286 287 289 290 291 293 294 295 296 298 299 300 302 303 304 305 305 306 307 307 308 308 308 309 309 309 309 310 310 309
262 263 266 268 269 271 273 275 277 278 280 281 283 284 286 287 289 290 292 293 294 295 297 299 300 302 303 303 304 305 306 307 308 308 309 309 309 310 310 310 310 311 310 310
262 263 266 269 270 272 274 277 278 279 280 281 283 285 286 288 289 291 292 293 295 296 298 300 301 302 303 304 305 306 307 308 309 309 310 310 311 311 311 311 311 312 312 311
262 264 266 269 271 273 275 277 278 280 280 281 283 285 286 288 289 291 292 294 296 297 299 300 302 303 304 305 306 307 308 309 310 311 311 311 312 312 312 312 313 313 313 312
263 265 268 270 271 273 275 277 279 280 281 282 283 284 286 288 290 291 293 295 297 298 300 301 302 303 305 306 307 308 309 310 311 311 312 312 312 313 313 314 314 314 313 312
264 267 269 270 272 274 276 278 279 280 281 282 284 285 286 288 290 292 294 296 297 299 300 302 303 304 305 306 307 309 309 310 311 312 312 313 313 314 314 314 315 315 314 313
265 267 269 271 272 274 276 278 279 280 281 283 285 286 287 289 290 292 294 296 298 299 301 302 304 305 306 307 308 309 310 311 312 312 313 313 313 314 315 315 315 315 314 314
266 267 269 270 272 274 275 277 278 280 282 283 285 286 288 290 292 294 295 297 299 300 302 303 305 306 307 308 309 309 310 311 312 313 313 313 314 315 315 315 315 315 314 314
266 268 269 271 272 274 275 277 279 281 282 284 285 287 289 291 293 294 296 298 300 301 303 304 305 306 307 308 309 310 311 312 312 312 313 314 314 315 315 315 315 314 314 314
266 268 269 271 273 275 276 278 280 281 283 284 286 288 290 292 294 295 297 299 301 302 303 305 306 307 308 309 310 310 311 312 312 313 313 314 314 315 315 315 315 314 314 314
267 269 271 273 274 276 278 279 281 282 284 285 287 289 291 293 295 297 299 300 301 303 304 305 306 307 308 309 310 311 312 312 313 313 314 314 314 314 314 315 315 315 315 315
270 271 273 275 277 278 279 281 282 283 285 287 289 291 293 294 296 298 300 301 303 304 305 306 307 308 309 310 311 312 312 313 313 314 314 314 314 315 315 315 316 316 316 316
271 272 274 276 278 279 280 282 283 284 286 288 290 292 294 296 298 299 301 302 303 304 305 306 307 309 310 310 311 312 313 314 314 314 314 315 315 316 317 317 317 318 317 317
270 273 274 276 277 279 280 282 283 285 287 289 291 293 295 297 299 300 301 303 304 305 306 307 308 309 310 311 312 313 314 314 314 315 315 316 316 317 319 319 319 319 319 318